Carbondale, IL

11:41 AM CST on November 13, 2019 (GMT -0600)
Southern Illinois

Weather History for KMDH - August, 2019

Change the Weather History Date:

Thursday, August 29, 2019

  Actual Average Record
Temperature  
Mean Temperature 72 °F -  
Max Temperature 86 °F 86 °F 104 °F (1925)
Min Temperature 57 °F 62 °F 33 °F (1996)
Cooling Degree Days 6    
Growing Degree Days 22 (Base 50)    
Moisture  
Dew Point 60 °F    
Average Humidity 71    
Maximum Humidity 97    
Minimum Humidity 38    
Precipitation  
Precipitation 0.00 in - - ()
Sea Level Pressure  
Sea Level Pressure 30.06 in    
Wind  
Wind Speed 5 mph (SSW)    
Max Wind Speed 15 mph    
Max Gust Speed 22 mph    
Visibility 10 miles    
Events      
Averages and records for this station are not official NWS values.
T = Trace of Precipitation, MM = Missing Value Source: NWS Daily Summary

Daily Weather History Graph

Daily Weather History Graph

Search for Another Location

Airport or City:

Astronomy

Aug. 29, 2019 Rise Set
Actual Time 6:24 AM CDT 7:30 PM CDT
Civil Twilight 5:57 AM CDT 7:57 PM CDT
Nautical Twilight 5:25 AM CDT 8:30 PM CDT
Astronomical Twilight 4:51 AM CDT 9:03 PM CDT
Moon 5:11 AM CDT (8/29) 7:26 PM CDT (8/29)
Length of Visible Light 14h 00m
Length of Day
13h 06m
Waning Crescent, 1% of the Moon is Illuminated
Aug 29
Waning Crescent
Aug 30
New
Sep 5
First Quarter
Sep 13
Full
Sep 21
Last Quarter

Hourly Weather History & Observations

Time (CDT) Temp. Heat Index Dew Point Humidity Pressure Visibility Wind Dir Wind Speed Gust Speed Precip Events Conditions
12:52 AM 60.1 °F - 57.9 °F 93% 30.06 in 10.0 mi Calm Calm - N/A   Clear
1:52 AM 57.9 °F - 57.0 °F 97% 30.06 in 10.0 mi Calm Calm - N/A   Clear
2:52 AM 57.9 °F - 57.0 °F 97% 30.06 in 10.0 mi Calm Calm - N/A   Clear
3:52 AM 57.0 °F - 55.9 °F 96% 30.06 in 10.0 mi South 3.5 mph - N/A   Clear
4:52 AM 57.0 °F - 55.0 °F 93% 30.07 in 10.0 mi SSE 3.5 mph - N/A   Clear
5:52 AM 57.0 °F - 55.9 °F 96% 30.08 in 10.0 mi SSE 3.5 mph - N/A   Clear
6:52 AM 57.9 °F - 57.0 °F 97% 30.09 in 10.0 mi South 3.5 mph - N/A   Clear
7:52 AM 64.9 °F - 61.0 °F 87% 30.10 in 10.0 mi South 4.6 mph - N/A   Clear
8:52 AM 73.0 °F - 64.0 °F 73% 30.10 in 10.0 mi SW 5.8 mph - N/A   Clear
9:52 AM 78.1 °F - 63.0 °F 60% 30.11 in 10.0 mi WSW 9.2 mph - N/A   Clear
10:52 AM 81.0 °F 81.7 °F 61.0 °F 50% 30.10 in 10.0 mi SW 8.1 mph - N/A   Clear
11:52 AM 82.9 °F 84.0 °F 63.0 °F 51% 30.09 in 10.0 mi SSW 8.1 mph - N/A   Clear
12:52 PM 84.9 °F 85.4 °F 62.1 °F 46% 30.06 in 10.0 mi SW 10.4 mph - N/A   Clear
1:52 PM 86.0 °F 85.0 °F 57.9 °F 38% 30.07 in 10.0 mi SSW 13.8 mph 21.9 mph N/A   Clear
2:52 PM 86.0 °F 85.7 °F 60.1 °F 41% 30.05 in 10.0 mi SSW 12.7 mph - N/A   Clear
3:52 PM 84.0 °F 83.8 °F 59.0 °F 43% 30.03 in 10.0 mi SSW 15.0 mph - N/A   Clear
4:52 PM 84.0 °F 84.4 °F 61.0 °F 46% 30.02 in 10.0 mi SSW 11.5 mph - N/A   Clear
5:52 PM 80.1 °F 81.2 °F 62.1 °F 54% 29.99 in 10.0 mi SSW 10.4 mph - N/A   Clear
6:52 PM 78.1 °F - 63.0 °F 60% 30.01 in 10.0 mi SSW 6.9 mph - N/A   Clear
7:52 PM 71.1 °F - 63.0 °F 75% 30.00 in 10.0 mi SSW 8.1 mph - N/A   Clear
8:52 PM 70.0 °F - 62.1 °F 76% 30.03 in 10.0 mi Calm Calm - N/A   Clear
9:52 PM 66.0 °F - 61.0 °F 84% 30.04 in 10.0 mi SSW 8.1 mph - N/A   Clear
10:52 PM 69.1 °F - 60.1 °F 73% 30.02 in 10.0 mi SSW 5.8 mph - N/A   Clear
11:52 PM 68.0 °F - 60.1 °F 76% 30.04 in 10.0 mi SSW 5.8 mph - N/A   Clear